Location: ?
(35.4214°N, 139.3011°E)
Time: 22:35:20
(UTC+00:00)

Cosmos-2242 - Pass Details

Date: 14 July 2020
Orbit: 592 x 616 km, 82.5° (Epoch: 10 August)

Event Time Altitude Azimuth Distance (km) Brightness Sun altitude
Rises 11:26:33 0° 343° (NNW) 2,882 7.5 -15.6°
Reaches altitude 10° 11:28:54 10° 334° (NNW) 1,976 6.7 -15.9°
Maximum altitude 11:32:53 35° 269° (W) 988 4.5 -16.5°
Drops below altitude 10° 11:36:52 10° 203° (SSW) 1,969 5.4 -17.1°
Enters shadow 11:37:39 - 199° (SSW) 2,264 5.7 -17.2°
